Location: Moscow
(30.9132°N, 94.8252°W)
Time: 07:23:12
(UTC+00:00)

SL-16 R/B - Pass Details

Date: 15 November 2025
Orbit: 840 x 847 km, 71.0° (Epoch: 13 December)

Event Time Altitude Azimuth Distance (km) Brightness Sun altitude
Rises 11:15:17 0° 212° (SSW) 3,390 5.1 -19.6°
Reaches altitude 10° 11:17:48 10° 217° (SW) 2,459 4.4 -19.1°
Maximum altitude 11:23:16 51° 293° (WNW) 1,061 2.3 -17.9°
Drops below altitude 10° 11:28:47 10° 8° (N) 2,473 4.6 -16.8°
Sets 11:31:19 0° 14° (NNE) 3,411 5.4 -16.2°
